Location: Regensburg
(48.4565°N, 10.3217°E)
Time: 02:53:12
(UTC+01:00)

OTV 5 (USA 277) - Visible Passes

Search period start: 25 November 2017 00:00
Search period end: 05 December 2017 00:00
Orbit: 404 x 417 km, 43.0° (Epoch: 07 September)

Date Brightness Start Highest point End Pass type
(mag) Time Alt. Az. Time Alt. Az. Time Alt. Az.
03 Dec ? 18:28:12 10° S 18:29:39 14° SSE 18:29:39 14° SSE visible
04 Dec ? 17:38:20 10° SSE 17:39:16 11° SSE 17:40:12 10° SE visible
04 Dec ? 19:13:00 10° SW 19:13:47 15° SW 19:13:47 15° SW visible
